Location: Unspecified
(0.0000°N, 0.0000°E)
Time: 23:48:23
(UTC+00:00)

S-56A Canister/Altair - Pass Details

Date: 03 October 2020
Orbit: 633 x 2499 km, 38.9° (Epoch: 28 October)

Event Time Altitude Azimuth Distance (km) Brightness Sun altitude
Rises 12:21:39 0° 271° (W) 5,237 11.9 80.8°
Reaches altitude 10° 12:26:03 10° 285° (WNW) 4,525 11.7 79.8°
Maximum altitude 12:35:09 22° 330° (NNW) 4,044 11.6 77.7°
Drops below altitude 10° 12:45:30 10° 14° (NNE) 5,152 11.8 75.2°
Sets 12:51:10 0° 29° (NNE) 6,137 12.0 73.9°
